Time,TemperatureF,DewpointF,PressureIn,WindDirection,WindDirectionDegrees,WindSpeedMPH,WindSpeedGustMPH,Humidity,HourlyPrecipIn,Conditions,Clouds,dailyrainin,SoftwareType,DateUTC
2013-09-23 00:01:00,51.4,27.9,29.77,West,260,0.0,0.0,40,0.00,,---,0.00,VWS V14.01,2013-09-23 04:01:00,
2013-09-23 00:06:00,51.4,27.9,29.77,West,260,0.0,0.0,40,0.00,,---,0.00,VWS V14.01,2013-09-23 04:06:00,
2013-09-23 00:11:00,51.4,27.9,29.77,West,260,0.0,0.0,40,0.00,,---,0.00,VWS V14.01,2013-09-23 04:11:00,
2013-09-23 00:16:00,51.4,27.9,29.77,WNW,303,0.0,0.0,40,0.00,,---,0.00,VWS V14.01,2013-09-23 04:16:00,
2013-09-23 00:21:00,51.4,27.3,29.77,WNW,303,0.0,0.0,39,0.00,,---,0.00,VWS V14.01,2013-09-23 04:21:00,
2013-09-23 00:26:00,51.6,27.5,29.77,WNW,303,0.0,0.0,39,0.00,,---,0.00,VWS V14.01,2013-09-23 04:26:00,
2013-09-23 00:31:00,51.6,27.5,29.77,WNW,303,0.0,0.0,39,0.00,,---,0.00,VWS V14.01,2013-09-23 04:31:00,
2013-09-23 00:36:00,51.6,27.5,29.77,WNW,303,0.0,0.0,39,0.00,,---,0.00,VWS V14.01,2013-09-23 04:36:00,
2013-09-23 00:41:00,51.6,27.5,29.77,WNW,303,0.0,0.0,39,0.00,,---,0.00,VWS V14.01,2013-09-23 04:41:00,
2013-09-23 00:46:00,51.6,27.5,29.77,WNW,303,0.0,0.0,39,0.00,,---,0.00,VWS V14.01,2013-09-23 04:46:00,
2013-09-23 00:51:00,51.6,27.5,29.77,WNW,303,0.0,0.0,39,0.00,,---,0.00,VWS V14.01,2013-09-23 04:51:00,
2013-09-23 00:56:00,51.4,27.3,29.80,WNW,303,0.0,0.0,39,0.00,,---,0.00,VWS V14.01,2013-09-23 04:56:00,
2013-09-23 01:01:00,51.3,27.2,29.80,WNW,303,0.0,0.0,39,0.00,,---,0.00,VWS V14.01,2013-09-23 05:01:00,
2013-09-23 01:06:00,51.3,27.2,29.80,WNW,303,0.0,0.0,39,0.00,,---,0.00,VWS V14.01,2013-09-23 05:06:00,
2013-09-23 01:11:00,51.3,27.2,29.80,WNW,303,0.0,0.0,39,0.00,,---,0.00,VWS V14.01,2013-09-23 05:11:00,
2013-09-23 01:16:00,51.1,27.6,29.80,WNW,303,0.0,0.0,40,0.00,,---,0.00,VWS V14.01,2013-09-23 05:16:00,
2013-09-23 01:21:00,51.3,27.8,29.80,WNW,303,0.0,0.0,40,0.00,,---,0.00,VWS V14.01,2013-09-23 05:21:00,
2013-09-23 01:26:00,51.3,27.2,29.80,WNW,303,0.0,0.0,39,0.00,,---,0.00,VWS V14.01,2013-09-23 05:26:00,
2013-09-23 01:31:00,51.3,25.9,29.80,WNW,303,0.0,0.0,37,0.00,,---,0.00,VWS V14.01,2013-09-23 05:31:00,
2013-09-23 01:36:00,51.1,25.1,29.80,WNW,303,0.0,0.0,36,0.00,,---,0.00,VWS V14.01,2013-09-23 05:36:00,
2013-09-23 01:41:00,51.1,25.7,29.80,WNW,303,0.0,0.0,37,0.00,,---,0.00,VWS V14.01,2013-09-23 05:41:00,
2013-09-23 01:46:00,51.3,25.9,29.80,WNW,303,0.0,0.0,37,0.00,,---,0.00,VWS V14.01,2013-09-23 05:46:00,
2013-09-23 01:51:00,51.1,25.7,29.80,WNW,303,0.0,0.0,37,0.00,,---,0.00,VWS V14.01,2013-09-23 05:51:00,
2013-09-23 01:56:00,51.1,25.7,29.80,NNW,345,2.2,2.7,37,0.00,,---,0.00,VWS V14.01,2013-09-23 05:56:00,
2013-09-23 02:01:00,51.1,25.7,29.80,NNW,345,0.0,0.0,37,0.00,,---,0.00,VWS V14.01,2013-09-23 06:01:00,
2013-09-23 02:06:00,51.1,25.7,29.80,NNW,345,0.0,0.0,37,0.00,,---,0.00,VWS V14.01,2013-09-23 06:06:00,
2013-09-23 02:11:00,51.1,25.7,29.80,NNW,345,0.0,0.0,37,0.00,,---,0.00,VWS V14.01,2013-09-23 06:11:00,
2013-09-23 02:16:00,50.9,25.6,29.80,NNW,345,0.0,0.0,37,0.00,,---,0.00,VWS V14.01,2013-09-23 06:16:00,
2013-09-23 02:21:00,50.5,25.2,29.80,NNW,345,0.0,0.0,37,0.00,,---,0.00,VWS V14.01,2013-09-23 06:21:00,
2013-09-23 02:26:00,50.4,25.7,29.83,NNW,345,0.0,0.0,38,0.00,,---,0.00,VWS V14.01,2013-09-23 06:26:00,
2013-09-23 02:31:00,50.4,25.7,29.83,NNW,345,0.0,0.0,38,0.00,,---,0.00,VWS V14.01,2013-09-23 06:31:00,
2013-09-23 02:36:00,50.2,25.6,29.83,NNW,345,0.0,0.0,38,0.00,,---,0.00,VWS V14.01,2013-09-23 06:36:00,
2013-09-23 02:41:00,50.0,25.4,29.83,NNW,345,0.0,0.0,38,0.00,,---,0.00,VWS V14.01,2013-09-23 06:41:00,
2013-09-23 02:46:00,49.8,25.9,29.83,NNW,345,0.0,0.0,39,0.00,,---,0.00,VWS V14.01,2013-09-23 06:46:00,
2013-09-23 02:51:00,49.5,25.5,29.83,NNW,345,0.0,0.0,39,0.00,,---,0.00,VWS V14.01,2013-09-23 06:51:00,
2013-09-23 02:56:00,49.1,25.8,29.83,NNW,345,0.0,0.0,40,0.00,,---,0.00,VWS V14.01,2013-09-23 06:56:00,
2013-09-23 03:01:00,49.1,25.8,29.83,NNW,345,0.0,0.0,40,0.00,,---,0.00,VWS V14.01,2013-09-23 07:01:00,
2013-09-23 03:06:00,49.1,25.8,29.83,NNW,345,0.0,0.0,40,0.00,,---,0.00,VWS V14.01,2013-09-23 07:06:00,
2013-09-23 03:11:00,48.9,25.7,29.83,NNW,345,0.0,0.0,40,0.00,,---,0.00,VWS V14.01,2013-09-23 07:11:00,
2013-09-23 03:16:00,48.9,25.7,29.83,NNW,345,0.0,0.0,40,0.00,,---,0.00,VWS V14.01,2013-09-23 07:16:00,
2013-09-23 03:21:00,48.7,25.5,29.83,NNW,345,0.0,0.0,40,0.00,,---,0.00,VWS V14.01,2013-09-23 07:21:00,
2013-09-23 03:26:00,48.7,25.5,29.83,NNW,345,0.0,0.0,40,0.00,,---,0.00,VWS V14.01,2013-09-23 07:26:00,
2013-09-23 03:31:00,48.6,25.4,29.83,NNW,345,0.0,0.0,40,0.00,,---,0.00,VWS V14.01,2013-09-23 07:31:00,
2013-09-23 03:36:00,48.2,25.0,29.83,NNW,345,0.0,0.0,40,0.00,,---,0.00,VWS V14.01,2013-09-23 07:36:00,
2013-09-23 03:41:00,48.2,25.6,29.83,NNW,345,0.0,0.0,41,0.00,,---,0.00,VWS V14.01,2013-09-23 07:41:00,
2013-09-23 03:46:00,48.2,25.6,29.83,NNW,345,0.0,0.0,41,0.00,,---,0.00,VWS V14.01,2013-09-23 07:46:00,
2013-09-23 03:51:00,48.2,25.6,29.83,NNW,345,0.0,0.0,41,0.00,,---,0.00,VWS V14.01,2013-09-23 07:51:00,
2013-09-23 03:56:00,48.2,25.6,29.83,NNW,345,0.0,0.0,41,0.00,,---,0.00,VWS V14.01,2013-09-23 07:56:00,
2013-09-23 04:01:00,48.0,25.5,29.83,NNW,345,0.0,0.0,41,0.00,,---,0.00,VWS V14.01,2013-09-23 08:01:00,
2013-09-23 04:06:00,48.0,25.5,29.83,NNW,345,0.0,0.0,41,0.00,,---,0.00,VWS V14.01,2013-09-23 08:06:00,
2013-09-23 04:11:00,47.7,25.1,29.83,NNW,345,0.0,0.0,41,0.00,,---,0.00,VWS V14.01,2013-09-23 08:11:00,
2013-09-23 04:16:00,47.7,25.1,29.83,NNW,345,0.0,0.0,41,0.00,,---,0.00,VWS V14.01,2013-09-23 08:16:00,
2013-09-23 04:21:00,47.7,25.1,29.83,NNW,345,0.0,0.0,41,0.00,,---,0.00,VWS V14.01,2013-09-23 08:21:00,
2013-09-23 04:26:00,47.5,25.0,29.83,NNW,345,0.0,0.0,41,0.00,,---,0.00,VWS V14.01,2013-09-23 08:26:00,
2013-09-23 04:31:00,47.5,25.5,29.83,NNW,345,0.0,0.0,42,0.00,,---,0.00,VWS V14.01,2013-09-23 08:31:00,
2013-09-23 04:36:00,47.3,25.4,29.83,NNW,345,0.0,0.0,42,0.00,,---,0.00,VWS V14.01,2013-09-23 08:36:00,
2013-09-23 04:41:00,47.3,25.4,29.83,NNW,345,0.0,0.0,42,0.00,,---,0.00,VWS V14.01,2013-09-23 08:41:00,
2013-09-23 04:46:00,47.3,25.4,29.83,NNW,345,0.0,0.0,42,0.00,,---,0.00,VWS V14.01,2013-09-23 08:46:00,
2013-09-23 04:51:00,46.9,24.5,29.83,NNW,345,0.0,0.0,41,0.00,,---,0.00,VWS V14.01,2013-09-23 08:51:00,
2013-09-23 04:56:00,46.8,24.9,29.83,NNW,345,0.0,0.0,42,0.00,,---,0.00,VWS V14.01,2013-09-23 08:56:00,
2013-09-23 05:01:00,46.6,24.7,29.83,NNW,345,0.0,0.0,42,0.00,,---,0.00,VWS V14.01,2013-09-23 09:01:00,
2013-09-23 05:06:00,46.6,24.7,29.83,NNW,345,0.0,0.0,42,0.00,,---,0.00,VWS V14.01,2013-09-23 09:06:00,
2013-09-23 05:11:00,46.6,24.7,29.83,NNW,345,0.0,0.0,42,0.00,,---,0.00,VWS V14.01,2013-09-23 09:11:00,
2013-09-23 05:16:00,46.4,24.6,29.83,NNW,345,0.0,0.0,42,0.00,,---,0.00,VWS V14.01,2013-09-23 09:16:00,
2013-09-23 05:21:00,46.6,25.3,29.83,NNW,345,0.0,0.0,43,0.00,,---,0.00,VWS V14.01,2013-09-23 09:21:00,
2013-09-23 05:26:00,46.6,24.7,29.83,NNW,345,0.0,0.0,42,0.00,,---,0.00,VWS V14.01,2013-09-23 09:26:00,
2013-09-23 05:31:00,46.4,25.1,29.83,NNW,345,0.0,0.0,43,0.00,,---,0.00,VWS V14.01,2013-09-23 09:31:00,
2013-09-23 05:36:00,46.4,25.1,29.83,NNW,345,0.0,0.0,43,0.00,,---,0.00,VWS V14.01,2013-09-23 09:36:00,
2013-09-23 05:41:00,46.6,25.3,29.83,NNW,345,0.0,0.0,43,0.00,,---,0.00,VWS V14.01,2013-09-23 09:41:00,
2013-09-23 05:46:00,46.4,24.6,29.83,NNW,345,0.0,0.0,42,0.00,,---,0.00,VWS V14.01,2013-09-23 09:46:00,
2013-09-23 05:51:00,45.9,24.6,29.83,NNW,345,0.0,0.0,43,0.00,,---,0.00,VWS V14.01,2013-09-23 09:51:00,
2013-09-23 05:56:00,45.7,25.0,29.85,NNW,345,0.0,0.0,44,0.00,,---,0.00,VWS V14.01,2013-09-23 09:56:00,
2013-09-23 06:01:00,45.9,25.2,29.85,NNW,345,0.0,0.0,44,0.00,,---,0.00,VWS V14.01,2013-09-23 10:01:00,
2013-09-23 06:06:00,45.7,25.0,29.85,NNW,345,0.0,0.0,44,0.00,,---,0.00,VWS V14.01,2013-09-23 10:06:00,
2013-09-23 06:11:00,45.3,24.7,29.85,NNW,345,0.0,0.0,44,0.00,,---,0.00,VWS V14.01,2013-09-23 10:11:00,
2013-09-23 06:16:00,45.1,25.1,29.85,NNW,345,0.0,0.0,45,0.00,,---,0.00,VWS V14.01,2013-09-23 10:16:00,
2013-09-23 06:21:00,45.0,24.9,29.85,NNW,345,0.0,0.0,45,0.00,,---,0.00,VWS V14.01,2013-09-23 10:21:00,
2013-09-23 06:26:00,45.1,25.6,29.85,NNW,345,0.0,0.0,46,0.00,,---,0.00,VWS V14.01,2013-09-23 10:26:00,
2013-09-23 06:31:00,45.3,25.8,29.85,NNW,345,0.0,0.0,46,0.00,,---,0.00,VWS V14.01,2013-09-23 10:31:00,
2013-09-23 06:36:00,45.5,25.9,29.85,NNW,345,0.0,0.0,46,0.00,,---,0.00,VWS V14.01,2013-09-23 10:36:00,
2013-09-23 06:41:00,45.1,25.1,29.85,NNW,345,0.0,0.0,45,0.00,,---,0.00,VWS V14.01,2013-09-23 10:41:00,
2013-09-23 06:46:00,45.1,25.6,29.85,NNW,345,0.0,0.0,46,0.00,,---,0.00,VWS V14.01,2013-09-23 10:46:00,
2013-09-23 06:51:00,45.1,25.6,29.85,NNW,345,0.0,0.0,46,0.00,,---,0.00,VWS V14.01,2013-09-23 10:51:00,
2013-09-23 06:56:00,45.3,26.3,29.85,NNW,345,0.0,0.0,47,0.00,,---,0.00,VWS V14.01,2013-09-23 10:56:00,
2013-09-23 07:01:00,45.5,26.5,29.85,NNW,345,0.0,0.0,47,0.00,,---,0.00,VWS V14.01,2013-09-23 11:01:00,
2013-09-23 07:06:00,45.5,26.5,29.85,NNW,345,0.0,0.0,47,0.00,,---,0.00,VWS V14.01,2013-09-23 11:06:00,
2013-09-23 07:11:00,45.5,26.5,29.88,NNW,345,0.0,0.0,47,0.00,,---,0.00,VWS V14.01,2013-09-23 11:11:00,
2013-09-23 07:16:00,45.5,27.0,29.88,NNW,345,0.0,0.0,48,0.00,,---,0.00,VWS V14.01,2013-09-23 11:16:00,
2013-09-23 07:21:00,45.7,27.1,29.88,NNW,345,0.0,0.0,48,0.00,,---,0.00,VWS V14.01,2013-09-23 11:21:00,
2013-09-23 07:26:00,45.9,27.3,29.88,NNW,345,0.0,0.0,48,0.00,,---,0.00,VWS V14.01,2013-09-23 11:26:00,
2013-09-23 07:31:00,46.0,27.5,29.88,NNW,345,0.0,0.0,48,0.00,,---,0.00,VWS V14.01,2013-09-23 11:31:00,
2013-09-23 07:36:00,46.0,27.5,29.88,NNW,345,0.0,0.0,48,0.00,,---,0.00,VWS V14.01,2013-09-23 11:36:00,
2013-09-23 07:41:00,46.2,27.6,29.88,NNW,345,0.0,0.0,48,0.00,,---,0.00,VWS V14.01,2013-09-23 11:41:00,
2013-09-23 07:46:00,46.4,27.3,29.88,NNW,345,0.0,0.0,47,0.00,,---,0.00,VWS V14.01,2013-09-23 11:46:00,
2013-09-23 07:51:00,46.8,28.1,29.88,NNW,345,0.0,0.0,48,0.00,,---,0.00,VWS V14.01,2013-09-23 11:51:00,
2013-09-23 07:56:00,46.9,28.3,29.88,NNW,345,0.0,0.0,48,0.00,,---,0.00,VWS V14.01,2013-09-23 11:56:00,
2013-09-23 08:01:00,47.1,28.5,29.88,NNW,345,0.0,0.0,48,0.00,,---,0.00,VWS V14.01,2013-09-23 12:01:00,
2013-09-23 08:06:00,47.3,28.6,29.88,NNW,345,0.0,0.0,48,0.00,,---,0.00,VWS V14.01,2013-09-23 12:06:00,
2013-09-23 08:11:00,47.5,29.3,29.88,NNW,345,0.0,0.0,49,0.00,,---,0.00,VWS V14.01,2013-09-23 12:11:00,
2013-09-23 08:16:00,48.0,30.3,29.88,NNW,345,0.0,0.0,50,0.00,,---,0.00,VWS V14.01,2013-09-23 12:16:00,
2013-09-23 08:21:00,48.7,29.4,29.88,NNW,345,0.0,0.0,47,0.00,,---,0.00,VWS V14.01,2013-09-23 12:21:00,
2013-09-23 08:26:00,49.6,28.1,29.88,NW,320,0.0,0.0,43,0.00,,---,0.00,VWS V14.01,2013-09-23 12:26:00,
2013-09-23 08:31:00,50.2,24.3,29.88,West,280,0.0,0.0,36,0.00,,---,0.00,VWS V14.01,2013-09-23 12:31:00,
2013-09-23 08:36:00,50.9,19.8,29.88,NNW,328,5.4,5.4,29,0.00,,---,0.00,VWS V14.01,2013-09-23 12:36:00,
2013-09-23 08:41:00,51.6,18.8,29.88,North,349,0.0,2.2,27,0.00,,---,0.00,VWS V14.01,2013-09-23 12:41:00,
2013-09-23 08:46:00,52.2,15.5,29.88,North,353,2.7,4.9,23,0.00,,---,0.00,VWS V14.01,2013-09-23 12:46:00,
2013-09-23 08:51:00,52.5,18.6,29.88,North,357,5.4,8.1,26,0.00,,---,0.00,VWS V14.01,2013-09-23 12:51:00,
2013-09-23 08:56:00,52.7,10.4,29.88,West,271,3.1,4.0,18,0.00,,---,0.00,VWS V14.01,2013-09-23 12:56:00,
2013-09-23 09:01:00,52.9,10.6,29.88,WNW,285,3.6,8.1,18,0.00,,---,0.00,VWS V14.01,2013-09-23 13:01:00,
2013-09-23 09:06:00,53.1,14.2,29.88,NW,316,3.6,3.6,21,0.00,,---,0.00,VWS V14.01,2013-09-23 13:06:00,
2013-09-23 09:11:00,53.1,10.7,29.88,NW,313,2.7,4.0,18,0.00,,---,0.00,VWS V14.01,2013-09-23 13:11:00,
2013-09-23 09:16:00,53.2,10.9,29.88,NNW,344,5.8,5.8,18,0.00,,---,0.00,VWS V14.01,2013-09-23 13:16:00,
2013-09-23 09:21:00,53.8,7.2,29.88,NW,320,5.8,5.8,15,0.00,,---,0.00,VWS V14.01,2013-09-23 13:21:00,
2013-09-23 09:26:00,54.1,7.5,29.88,NNE,15,6.3,6.3,15,0.00,,---,0.00,VWS V14.01,2013-09-23 13:26:00,
2013-09-23 09:31:00,54.5,7.8,29.88,West,277,2.7,3.1,15,0.00,,---,0.00,VWS V14.01,2013-09-23 13:31:00,
2013-09-23 09:36:00,54.9,8.1,29.88,NNE,18,3.1,3.6,15,0.00,,---,0.00,VWS V14.01,2013-09-23 13:36:00,
2013-09-23 09:41:00,55.0,8.2,29.88,NW,309,3.1,3.6,15,0.00,,---,0.00,VWS V14.01,2013-09-23 13:41:00,
2013-09-23 09:46:00,55.4,8.5,29.88,ENE,70,3.1,4.0,15,0.00,,---,0.00,VWS V14.01,2013-09-23 13:46:00,
2013-09-23 09:51:00,55.8,8.8,29.88,NW,321,5.8,5.8,15,0.00,,---,0.00,VWS V14.01,2013-09-23 13:51:00,
2013-09-23 09:56:00,56.1,9.1,29.88,NW,324,2.7,4.0,15,0.00,,---,0.00,VWS V14.01,2013-09-23 13:56:00,
2013-09-23 10:01:00,56.5,4.5,29.88,NNW,340,3.1,4.0,12,0.00,,---,0.00,VWS V14.01,2013-09-23 14:01:00,
2013-09-23 10:07:00,56.7,4.6,29.88,NW,320,3.1,4.0,12,0.00,,---,0.00,VWS V14.01,2013-09-23 14:07:00,
2013-09-23 10:12:00,56.8,4.8,29.88,North,350,3.6,5.4,12,0.00,,---,0.00,VWS V14.01,2013-09-23 14:12:00,
2013-09-23 10:17:00,57.0,4.9,29.88,NNW,332,4.0,6.3,12,0.00,,---,0.00,VWS V14.01,2013-09-23 14:17:00,
2013-09-23 10:22:00,57.4,5.2,29.88,WNW,303,4.9,8.7,12,0.00,,---,0.00,VWS V14.01,2013-09-23 14:22:00,
2013-09-23 10:27:00,57.4,5.2,29.88,East,101,2.7,3.6,12,0.00,,---,0.00,VWS V14.01,2013-09-23 14:27:00,
2013-09-23 10:32:00,57.7,5.5,29.88,NNW,344,4.0,4.0,12,0.00,,---,0.00,VWS V14.01,2013-09-23 14:32:00,
2013-09-23 10:37:00,57.9,5.6,29.88,NNW,340,2.7,5.8,12,0.00,,---,0.00,VWS V14.01,2013-09-23 14:37:00,
2013-09-23 10:42:00,58.3,5.9,29.88,NNW,330,3.1,5.4,12,0.00,,---,0.00,VWS V14.01,2013-09-23 14:42:00,
2013-09-23 10:47:00,58.8,6.3,29.88,NNW,335,4.0,5.8,12,0.00,,---,0.00,VWS V14.01,2013-09-23 14:47:00,
2013-09-23 10:52:00,58.6,6.2,29.88,WNW,297,3.1,8.1,12,0.00,,---,0.00,VWS V14.01,2013-09-23 14:52:00,
2013-09-23 10:57:00,59.0,6.5,29.88,SW,219,5.8,5.8,12,0.00,,---,0.00,VWS V14.01,2013-09-23 14:57:00,
2013-09-23 11:02:00,59.4,6.8,29.88,WSW,251,3.1,5.4,12,0.00,,---,0.00,VWS V14.01,2013-09-23 15:02:00,
2013-09-23 11:07:00,59.5,6.9,29.88,SSW,198,4.0,4.9,12,0.00,,---,0.00,VWS V14.01,2013-09-23 15:07:00,
2013-09-23 11:12:00,59.7,7.0,29.88,NW,308,4.0,5.8,12,0.00,,---,0.00,VWS V14.01,2013-09-23 15:12:00,
2013-09-23 11:17:00,59.7,7.0,29.88,North,350,3.6,5.8,12,0.00,,---,0.00,VWS V14.01,2013-09-23 15:17:00,
2013-09-23 11:22:00,59.7,7.0,29.88,NNW,344,3.1,6.3,12,0.00,,---,0.00,VWS V14.01,2013-09-23 15:22:00,
2013-09-23 11:27:00,60.3,7.5,29.88,NW,325,3.1,4.0,12,0.00,,---,0.00,VWS V14.01,2013-09-23 15:27:00,
2013-09-23 11:32:00,60.8,6.0,29.88,West,280,2.7,4.9,11,0.00,,---,0.00,VWS V14.01,2013-09-23 15:32:00,
2013-09-23 11:37:00,61.0,6.1,29.88,WNW,284,3.6,3.6,11,0.00,,---,0.00,VWS V14.01,2013-09-23 15:37:00,
2013-09-23 11:42:00,61.5,6.5,29.88,NW,315,3.6,4.0,11,0.00,,---,0.00,VWS V14.01,2013-09-23 15:42:00,
2013-09-23 11:47:00,61.5,6.5,29.88,NW,319,4.0,7.2,11,0.00,,---,0.00,VWS V14.01,2013-09-23 15:47:00,
2013-09-23 11:52:00,61.9,6.8,29.88,NW,323,0.0,0.0,11,0.00,,---,0.00,VWS V14.01,2013-09-23 15:52:00,
2013-09-23 11:57:00,62.8,7.5,29.88,SSW,213,0.0,0.0,11,0.00,,---,0.00,VWS V14.01,2013-09-23 15:57:00,
2013-09-23 12:02:00,63.1,7.8,29.88,NNW,341,3.1,4.0,11,0.00,,---,0.00,VWS V14.01,2013-09-23 16:02:00,
2013-09-23 12:07:00,62.1,7.0,29.88,West,267,4.9,4.9,11,0.00,,---,0.00,VWS V14.01,2013-09-23 16:07:00,
2013-09-23 12:11:00,62.4,7.2,29.88,SSE,166,2.2,4.9,11,0.00,,---,0.00,VWS V14.01,2013-09-23 16:11:00,
2013-09-23 12:16:00,63.0,7.7,29.88,WNW,298,3.1,3.6,11,0.00,,---,0.00,VWS V14.01,2013-09-23 16:16:00,
2013-09-23 12:21:00,63.0,7.7,29.88,WSW,241,2.7,6.3,11,0.00,,---,0.00,VWS V14.01,2013-09-23 16:21:00,
2013-09-23 12:26:00,63.5,8.1,29.88,ENE,57,0.0,3.6,11,0.00,,---,0.00,VWS V14.01,2013-09-23 16:26:00,
2013-09-23 12:31:00,64.2,8.6,29.88,SW,230,4.0,5.4,11,0.00,,---,0.00,VWS V14.01,2013-09-23 16:31:00,
2013-09-23 12:36:00,64.6,6.8,29.88,SW,216,3.1,3.1,10,0.00,,---,0.00,VWS V14.01,2013-09-23 16:36:00,
2013-09-23 12:41:00,64.4,6.7,29.88,NNW,344,2.7,3.1,10,0.00,,---,0.00,VWS V14.01,2013-09-23 16:41:00,
2013-09-23 12:46:00,64.0,8.5,29.88,NNW,328,5.4,5.4,11,0.00,,---,0.00,VWS V14.01,2013-09-23 16:46:00,
2013-09-23 12:51:00,64.2,8.6,29.88,West,276,5.4,6.3,11,0.00,,---,0.00,VWS V14.01,2013-09-23 16:51:00,
2013-09-23 12:56:00,65.1,7.2,29.88,West,260,2.7,3.1,10,0.00,,---,0.00,VWS V14.01,2013-09-23 16:56:00,
2013-09-23 13:02:00,64.8,6.9,29.88,NNW,328,4.0,4.0,10,0.00,,---,0.00,VWS V14.01,2013-09-23 17:02:00,
2013-09-23 13:07:00,65.1,7.2,29.88,SE,138,2.2,3.6,10,0.00,,---,0.00,VWS V14.01,2013-09-23 17:07:00,
2013-09-23 13:11:00,65.5,7.5,29.88,NW,322,6.3,6.3,10,0.00,,---,0.00,VWS V14.01,2013-09-23 17:11:00,
2013-09-23 13:16:00,66.0,7.9,29.88,NW,319,4.0,4.0,10,0.00,,---,0.00,VWS V14.01,2013-09-23 17:16:00,
2013-09-23 13:22:00,66.0,7.9,29.88,WSW,258,0.0,2.7,10,0.00,,---,0.00,VWS V14.01,2013-09-23 17:22:00,
2013-09-23 13:27:00,66.0,7.9,29.85,North,353,3.6,8.7,10,0.00,,---,0.00,VWS V14.01,2013-09-23 17:27:00,
2013-09-23 13:31:00,66.0,7.9,29.85,North,7,4.0,8.1,10,0.00,,---,0.00,VWS V14.01,2013-09-23 17:31:00,
2013-09-23 13:37:00,67.1,8.7,29.85,WNW,287,3.6,4.0,10,0.00,,---,0.00,VWS V14.01,2013-09-23 17:37:00,
2013-09-23 13:42:00,67.1,8.7,29.85,North,353,0.0,3.1,10,0.00,,---,0.00,VWS V14.01,2013-09-23 17:42:00,
2013-09-23 13:47:00,67.3,8.9,29.85,WSW,256,2.7,6.3,10,0.00,,---,0.00,VWS V14.01,2013-09-23 17:47:00,
2013-09-23 13:51:00,67.8,9.3,29.85,West,274,4.0,4.0,10,0.00,,---,0.00,VWS V14.01,2013-09-23 17:51:00,
2013-09-23 13:56:00,68.0,9.4,29.85,NNW,345,3.6,4.0,10,0.00,,---,0.00,VWS V14.01,2013-09-23 17:56:00,
2013-09-23 14:01:00,68.4,9.7,29.85,NW,306,3.6,5.4,10,0.00,,---,0.00,VWS V14.01,2013-09-23 18:01:00,
2013-09-23 14:06:00,69.1,10.3,29.85,WSW,248,5.4,5.4,10,0.00,,---,0.00,VWS V14.01,2013-09-23 18:06:00,
2013-09-23 14:11:00,69.1,10.3,29.85,WNW,299,2.7,4.0,10,0.00,,---,0.00,VWS V14.01,2013-09-23 18:11:00,
2013-09-23 14:16:00,69.8,8.5,29.85,West,279,3.6,3.6,9,0.00,,---,0.00,VWS V14.01,2013-09-23 18:16:00,
2013-09-23 14:21:00,69.8,8.5,29.85,West,272,3.6,7.2,9,0.00,,---,0.00,VWS V14.01,2013-09-23 18:21:00,
2013-09-23 14:26:00,69.1,10.3,29.85,NNW,329,4.0,6.3,10,0.00,,---,0.00,VWS V14.01,2013-09-23 18:26:00,
2013-09-23 14:31:00,68.7,10.0,29.85,SSE,150,5.4,5.4,10,0.00,,---,0.00,VWS V14.01,2013-09-23 18:31:00,
2013-09-23 14:37:00,67.8,9.3,29.85,NW,310,4.9,4.9,10,0.00,,---,0.00,VWS V14.01,2013-09-23 18:37:00,
2013-09-23 14:42:00,67.6,9.1,29.85,WSW,248,4.9,5.8,10,0.00,,---,0.00,VWS V14.01,2013-09-23 18:42:00,
2013-09-23 14:46:00,68.5,9.8,29.85,NE,34,0.0,2.7,10,0.00,,---,0.00,VWS V14.01,2013-09-23 18:46:00,
2013-09-23 14:52:00,68.5,9.8,29.85,West,261,3.1,3.1,10,0.00,,---,0.00,VWS V14.01,2013-09-23 18:52:00,
2013-09-23 14:56:00,68.4,9.7,29.85,SW,223,2.2,4.0,10,0.00,,---,0.00,VWS V14.01,2013-09-23 18:56:00,
2013-09-23 15:01:00,68.2,9.6,29.85,NW,309,2.7,4.0,10,0.00,,---,0.00,VWS V14.01,2013-09-23 19:01:00,
2013-09-23 15:06:00,67.8,9.3,29.85,NW,321,4.0,4.0,10,0.00,,---,0.00,VWS V14.01,2013-09-23 19:06:00,
2013-09-23 15:11:00,68.0,9.4,29.85,WSW,238,0.0,3.6,10,0.00,,---,0.00,VWS V14.01,2013-09-23 19:11:00,
2013-09-23 15:16:00,67.8,9.3,29.85,NE,53,3.1,3.6,10,0.00,,---,0.00,VWS V14.01,2013-09-23 19:16:00,
2013-09-23 15:22:00,67.5,9.0,29.85,WSW,246,2.7,6.7,10,0.00,,---,0.00,VWS V14.01,2013-09-23 19:22:00,
2013-09-23 15:27:00,67.1,8.7,29.85,WSW,244,0.0,2.7,10,0.00,,---,0.00,VWS V14.01,2013-09-23 19:27:00,
2013-09-23 15:32:00,66.9,8.6,29.85,SW,221,3.6,6.3,10,0.00,,---,0.00,VWS V14.01,2013-09-23 19:32:00,
2013-09-23 15:37:00,66.7,8.5,29.85,North,357,2.7,3.6,10,0.00,,---,0.00,VWS V14.01,2013-09-23 19:37:00,
2013-09-23 15:42:00,66.9,8.6,29.85,NW,312,0.0,0.0,10,0.00,,---,0.00,VWS V14.01,2013-09-23 19:42:00,
2013-09-23 15:47:00,66.6,8.3,29.85,WSW,255,0.0,4.0,10,0.00,,---,0.00,VWS V14.01,2013-09-23 19:47:00,
2013-09-23 15:52:00,66.6,8.3,29.85,West,264,5.8,5.8,10,0.00,,---,0.00,VWS V14.01,2013-09-23 19:52:00,
2013-09-23 15:57:00,66.2,8.1,29.85,ENE,71,4.9,4.9,10,0.00,,---,0.00,VWS V14.01,2013-09-23 19:57:00,
2013-09-23 16:02:00,66.2,8.1,29.85,NW,325,0.0,2.2,10,0.00,,---,0.00,VWS V14.01,2013-09-23 20:02:00,
2013-09-23 16:07:00,66.2,8.1,29.85,West,266,2.2,4.0,10,0.00,,---,0.00,VWS V14.01,2013-09-23 20:07:00,
2013-09-23 16:12:00,66.4,8.2,29.85,SW,231,3.1,3.1,10,0.00,,---,0.00,VWS V14.01,2013-09-23 20:12:00,
2013-09-23 16:17:00,66.2,8.1,29.85,NW,310,3.1,4.9,10,0.00,,---,0.00,VWS V14.01,2013-09-23 20:17:00,
2013-09-23 16:22:00,65.7,7.6,29.85,NW,311,2.7,4.0,10,0.00,,---,0.00,VWS V14.01,2013-09-23 20:22:00,
2013-09-23 16:27:00,65.5,7.5,29.85,West,263,2.7,3.6,10,0.00,,---,0.00,VWS V14.01,2013-09-23 20:27:00,
2013-09-23 16:32:00,65.5,7.5,29.85,SE,130,3.6,3.6,10,0.00,,---,0.00,VWS V14.01,2013-09-23 20:32:00,
2013-09-23 16:37:00,65.3,7.4,29.85,West,265,0.0,4.0,10,0.00,,---,0.00,VWS V14.01,2013-09-23 20:37:00,
2013-09-23 16:42:00,65.1,7.2,29.85,WSW,258,3.1,3.6,10,0.00,,---,0.00,VWS V14.01,2013-09-23 20:42:00,
2013-09-23 16:47:00,65.1,7.2,29.85,West,259,0.0,4.0,10,0.00,,---,0.00,VWS V14.01,2013-09-23 20:47:00,
2013-09-23 16:52:00,65.1,7.2,29.85,South,176,2.7,4.0,10,0.00,,---,0.00,VWS V14.01,2013-09-23 20:52:00,
2013-09-23 16:57:00,65.1,7.2,29.85,NW,304,0.0,3.6,10,0.00,,---,0.00,VWS V14.01,2013-09-23 20:57:00,
2013-09-23 17:02:00,64.9,7.1,29.85,NW,310,4.0,4.0,10,0.00,,---,0.00,VWS V14.01,2013-09-23 21:02:00,
2013-09-23 17:07:00,64.8,6.9,29.85,NNW,330,3.6,4.0,10,0.00,,---,0.00,VWS V14.01,2013-09-23 21:07:00,
2013-09-23 17:11:00,64.6,6.8,29.85,NNW,334,2.2,3.1,10,0.00,,---,0.00,VWS V14.01,2013-09-23 21:11:00,
2013-09-23 17:17:00,64.6,6.8,29.85,WNW,291,2.2,4.9,10,0.00,,---,0.00,VWS V14.01,2013-09-23 21:17:00,
2013-09-23 17:21:00,64.4,6.7,29.85,WSW,251,0.0,0.0,10,0.00,,---,0.00,VWS V14.01,2013-09-23 21:21:00,
2013-09-23 17:26:00,64.4,6.7,29.85,West,279,5.4,5.4,10,0.00,,---,0.00,VWS V14.01,2013-09-23 21:26:00,
2013-09-23 17:31:00,64.2,8.6,29.85,WNW,296,0.0,0.0,11,0.00,,---,0.00,VWS V14.01,2013-09-23 21:31:00,
2013-09-23 17:36:00,63.9,8.4,29.85,NNW,345,2.7,3.1,11,0.00,,---,0.00,VWS V14.01,2013-09-23 21:36:00,
2013-09-23 17:41:00,63.9,8.4,29.85,NW,306,0.0,0.0,11,0.00,,---,0.00,VWS V14.01,2013-09-23 21:41:00,
2013-09-23 17:46:00,63.7,8.2,29.85,SW,236,0.0,0.0,11,0.00,,---,0.00,VWS V14.01,2013-09-23 21:46:00,
2013-09-23 17:51:00,63.7,8.2,29.85,NW,312,2.2,4.0,11,0.00,,---,0.00,VWS V14.01,2013-09-23 21:51:00,
2013-09-23 17:56:00,63.7,8.2,29.85,WSW,250,3.1,3.1,11,0.00,,---,0.00,VWS V14.01,2013-09-23 21:56:00,
2013-09-23 18:01:00,63.9,8.4,29.85,WSW,239,0.0,0.0,11,0.00,,---,0.00,VWS V14.01,2013-09-23 22:01:00,
2013-09-23 18:06:00,64.2,8.6,29.85,WSW,239,0.0,0.0,11,0.00,,---,0.00,VWS V14.01,2013-09-23 22:06:00,
2013-09-23 18:11:00,64.4,6.7,29.85,WSW,239,0.0,0.0,10,0.00,,---,0.00,VWS V14.01,2013-09-23 22:11:00,
2013-09-23 18:17:00,65.7,7.6,29.85,WSW,239,0.0,0.0,10,0.00,,---,0.00,VWS V14.01,2013-09-23 22:17:00,
2013-09-23 18:22:00,66.6,8.3,29.85,WSW,240,0.0,0.0,10,0.00,,---,0.00,VWS V14.01,2013-09-23 22:22:00,
2013-09-23 18:27:00,66.4,8.2,29.85,WSW,239,0.0,0.0,10,0.00,,---,0.00,VWS V14.01,2013-09-23 22:27:00,
2013-09-23 18:32:00,65.8,7.8,29.85,WSW,239,0.0,0.0,10,0.00,,---,0.00,VWS V14.01,2013-09-23 22:32:00,
2013-09-23 18:37:00,64.4,6.7,29.85,WSW,239,0.0,0.0,10,0.00,,---,0.00,VWS V14.01,2013-09-23 22:37:00,
2013-09-23 18:42:00,63.1,7.8,29.85,WSW,239,0.0,0.0,11,0.00,,---,0.00,VWS V14.01,2013-09-23 22:42:00,
2013-09-23 18:47:00,62.2,7.1,29.85,WSW,240,0.0,0.0,11,0.00,,---,0.00,VWS V14.01,2013-09-23 22:47:00,
2013-09-23 18:52:00,61.7,6.7,29.85,WSW,239,0.0,0.0,11,0.00,,---,0.00,VWS V14.01,2013-09-23 22:52:00,
2013-09-23 18:57:00,60.8,6.0,29.85,WSW,239,0.0,0.0,11,0.00,,---,0.00,VWS V14.01,2013-09-23 22:57:00,
2013-09-23 19:02:00,60.1,7.3,29.85,WSW,239,0.0,0.0,12,0.00,,---,0.00,VWS V14.01,2013-09-23 23:02:00,
2013-09-23 19:07:00,59.2,10.0,29.85,WSW,239,0.0,0.0,14,0.00,,---,0.00,VWS V14.01,2013-09-23 23:07:00,
2013-09-23 19:12:00,59.0,9.9,29.88,WSW,240,0.0,0.0,14,0.00,,---,0.00,VWS V14.01,2013-09-23 23:12:00,
2013-09-23 19:17:00,58.8,9.8,29.88,WSW,239,0.0,0.0,14,0.00,,---,0.00,VWS V14.01,2013-09-23 23:17:00,
2013-09-23 19:22:00,58.6,9.6,29.88,WSW,240,0.0,0.0,14,0.00,,---,0.00,VWS V14.01,2013-09-23 23:22:00,
2013-09-23 19:27:00,58.3,9.3,29.88,WSW,239,0.0,0.0,14,0.00,,---,0.00,VWS V14.01,2013-09-23 23:27:00,
2013-09-23 19:32:00,57.9,9.0,29.88,WSW,239,0.0,0.0,14,0.00,,---,0.00,VWS V14.01,2013-09-23 23:32:00,
2013-09-23 19:37:00,57.6,13.1,29.88,WSW,239,0.0,0.0,17,0.00,,---,0.00,VWS V14.01,2013-09-23 23:37:00,
2013-09-23 19:42:00,57.4,12.9,29.88,WSW,239,0.0,0.0,17,0.00,,---,0.00,VWS V14.01,2013-09-23 23:42:00,
2013-09-23 19:47:00,57.0,12.7,29.88,WSW,239,0.0,0.0,17,0.00,,---,0.00,VWS V14.01,2013-09-23 23:47:00,
2013-09-23 19:52:00,56.7,16.1,29.88,WSW,239,0.0,0.0,20,0.00,,---,0.00,VWS V14.01,2013-09-23 23:52:00,
2013-09-23 19:57:00,56.5,15.9,29.88,WSW,240,0.0,0.0,20,0.00,,---,0.00,VWS V14.01,2013-09-23 23:57:00,
2013-09-23 20:02:00,56.3,18.0,29.88,WSW,240,0.0,0.0,22,0.00,,---,0.00,VWS V14.01,2013-09-24 00:02:00,
2013-09-23 20:07:00,56.1,20.8,29.88,WSW,240,0.0,0.0,25,0.00,,---,0.00,VWS V14.01,2013-09-24 00:07:00,
2013-09-23 20:12:00,55.8,20.5,29.88,WSW,239,0.0,0.0,25,0.00,,---,0.00,VWS V14.01,2013-09-24 00:12:00,
2013-09-23 20:17:00,55.0,21.7,29.88,WSW,239,0.0,0.0,27,0.00,,---,0.00,VWS V14.01,2013-09-24 00:17:00,
2013-09-23 20:22:00,54.3,22.8,29.88,WSW,239,0.0,0.0,29,0.00,,---,0.00,VWS V14.01,2013-09-24 00:22:00,
2013-09-23 20:27:00,54.1,23.4,29.88,WSW,239,0.0,0.0,30,0.00,,---,0.00,VWS V14.01,2013-09-24 00:27:00,
2013-09-23 20:32:00,53.8,23.1,29.88,WSW,239,0.0,0.0,30,0.00,,---,0.00,VWS V14.01,2013-09-24 00:32:00,
2013-09-23 20:37:00,54.0,24.0,29.88,WSW,239,0.0,0.0,31,0.00,,---,0.00,VWS V14.01,2013-09-24 00:37:00,
2013-09-23 20:42:00,53.8,23.9,29.88,WSW,240,0.0,0.0,31,0.00,,---,0.00,VWS V14.01,2013-09-24 00:42:00,
2013-09-23 20:47:00,53.8,23.9,29.88,WSW,240,0.0,0.0,31,0.00,,---,0.00,VWS V14.01,2013-09-24 00:47:00,
2013-09-23 20:52:00,53.4,23.6,29.88,WSW,239,0.0,0.0,31,0.00,,---,0.00,VWS V14.01,2013-09-24 00:52:00,
2013-09-23 20:57:00,53.2,23.4,29.88,WSW,240,0.0,0.0,31,0.00,,---,0.00,VWS V14.01,2013-09-24 00:57:00,
2013-09-23 21:02:00,53.1,24.0,29.88,WSW,240,0.0,0.0,32,0.00,,---,0.00,VWS V14.01,2013-09-24 01:02:00,
2013-09-23 21:07:00,52.9,23.9,29.88,WSW,240,0.0,0.0,32,0.00,,---,0.00,VWS V14.01,2013-09-24 01:07:00,
2013-09-23 21:12:00,52.9,23.9,29.88,WSW,240,0.0,0.0,32,0.00,,---,0.00,VWS V14.01,2013-09-24 01:12:00,
2013-09-23 21:17:00,52.7,23.7,29.88,WSW,239,0.0,0.0,32,0.00,,---,0.00,VWS V14.01,2013-09-24 01:17:00,
2013-09-23 21:22:00,52.7,24.4,29.88,WSW,240,0.0,0.0,33,0.00,,---,0.00,VWS V14.01,2013-09-24 01:22:00,
2013-09-23 21:27:00,52.5,25.0,29.88,WSW,239,0.0,0.0,34,0.00,,---,0.00,VWS V14.01,2013-09-24 01:27:00,
2013-09-23 21:32:00,52.3,25.5,29.88,WSW,239,0.0,0.0,35,0.00,,---,0.00,VWS V14.01,2013-09-24 01:32:00,
2013-09-23 21:37:00,52.0,25.2,29.91,WSW,239,0.0,0.0,35,0.00,,---,0.00,VWS V14.01,2013-09-24 01:37:00,
2013-09-23 21:42:00,51.8,25.0,29.91,WSW,240,0.0,0.0,35,0.00,,---,0.00,VWS V14.01,2013-09-24 01:42:00,
2013-09-23 21:47:00,51.6,25.6,29.91,WSW,239,0.0,0.0,36,0.00,,---,0.00,VWS V14.01,2013-09-24 01:47:00,
2013-09-23 21:52:00,51.6,25.6,29.91,WSW,240,0.0,0.0,36,0.00,,---,0.00,VWS V14.01,2013-09-24 01:52:00,
2013-09-23 21:57:00,51.6,25.6,29.91,WSW,239,0.0,0.0,36,0.00,,---,0.00,VWS V14.01,2013-09-24 01:57:00,
2013-09-23 22:02:00,51.6,25.6,29.91,WSW,239,0.0,0.0,36,0.00,,---,0.00,VWS V14.01,2013-09-24 02:02:00,
2013-09-23 22:07:00,51.3,25.2,29.91,WSW,240,0.0,0.0,36,0.00,,---,0.00,VWS V14.01,2013-09-24 02:07:00,
2013-09-23 22:12:00,51.1,25.7,29.91,WSW,240,0.0,0.0,37,0.00,,---,0.00,VWS V14.01,2013-09-24 02:12:00,
2013-09-23 22:17:00,50.9,24.9,29.91,WSW,239,0.0,0.0,36,0.00,,---,0.00,VWS V14.01,2013-09-24 02:17:00,
2013-09-23 22:22:00,50.9,25.6,29.91,WSW,240,0.0,0.0,37,0.00,,---,0.00,VWS V14.01,2013-09-24 02:22:00,
2013-09-23 22:27:00,50.7,25.4,29.91,WSW,239,0.0,0.0,37,0.00,,---,0.00,VWS V14.01,2013-09-24 02:27:00,
2013-09-23 22:32:00,50.7,25.4,29.91,WSW,239,0.0,0.0,37,0.00,,---,0.00,VWS V14.01,2013-09-24 02:32:00,
2013-09-23 22:37:00,50.4,25.1,29.91,WSW,239,0.0,0.0,37,0.00,,---,0.00,VWS V14.01,2013-09-24 02:37:00,
2013-09-23 22:42:00,49.6,25.1,29.91,WSW,240,0.0,0.0,38,0.00,,---,0.00,VWS V14.01,2013-09-24 02:42:00,
2013-09-23 22:47:00,49.3,26.0,29.91,WSW,240,0.0,0.0,40,0.00,,---,0.00,VWS V14.01,2013-09-24 02:47:00,
2013-09-23 22:52:00,49.3,26.0,29.91,WSW,239,0.0,0.0,40,0.00,,---,0.00,VWS V14.01,2013-09-24 02:52:00,
2013-09-23 22:57:00,49.5,26.8,29.91,WSW,240,0.0,0.0,41,0.00,,---,0.00,VWS V14.01,2013-09-24 02:57:00,
2013-09-23 23:02:00,49.8,27.1,29.91,WSW,239,0.0,0.0,41,0.00,,---,0.00,VWS V14.01,2013-09-24 03:02:00,
2013-09-23 23:07:00,49.5,26.2,29.91,WSW,240,0.0,0.0,40,0.00,,---,0.00,VWS V14.01,2013-09-24 03:07:00,
2013-09-23 23:12:00,49.5,26.8,29.91,WSW,239,0.0,0.0,41,0.00,,---,0.00,VWS V14.01,2013-09-24 03:12:00,
2013-09-23 23:17:00,49.6,26.9,29.91,WSW,240,0.0,0.0,41,0.00,,---,0.00,VWS V14.01,2013-09-24 03:17:00,
2013-09-23 23:22:00,49.6,26.9,29.91,WSW,240,0.0,0.0,41,0.00,,---,0.00,VWS V14.01,2013-09-24 03:22:00,
2013-09-23 23:27:00,49.5,26.2,29.91,WSW,239,0.0,0.0,40,0.00,,---,0.00,VWS V14.01,2013-09-24 03:27:00,
2013-09-23 23:32:00,49.5,26.2,29.91,WSW,239,0.0,0.0,40,0.00,,---,0.00,VWS V14.01,2013-09-24 03:32:00,
2013-09-23 23:37:00,49.5,26.8,29.91,WSW,239,0.0,0.0,41,0.00,,---,0.00,VWS V14.01,2013-09-24 03:37:00,
2013-09-23 23:42:00,49.3,26.6,29.91,WSW,239,0.0,0.0,41,0.00,,---,0.00,VWS V14.01,2013-09-24 03:42:00,
2013-09-23 23:47:00,49.3,26.0,29.91,WSW,239,0.0,0.0,40,0.00,,---,0.00,VWS V14.01,2013-09-24 03:47:00,
2013-09-23 23:53:00,49.1,26.4,29.91,WSW,240,0.0,0.0,41,0.00,,---,0.00,VWS V14.01,2013-09-24 03:53:00,
2013-09-23 23:58:00,49.1,26.4,29.91,WSW,239,0.0,0.0,41,0.00,,---,0.00,VWS V14.01,2013-09-24 03:58:00,